sat.trackr.live / text

‹ back to catalog

GEESAT-1 02

NORAD 52786 · 2022-058B

PAYLOAD ACTIVE UNKNOWN

§ Identity

Operator
Country
PRC
Launch date
2022-06-02
Launch site
XICLF
Launch vehicle
Mass (kg)
RCS (m²)

External: N2YO · Heavens-Above · Gunter

§ Orbital elements

Epoch: 2026-09-20T21:57:56.733408Z

Period
97.19 min
Inclination
50.0000°
Eccentricity
0.0022360
Mean motion
14.81611098 rev/d
Perigee alt
608.6 km
Apogee alt
639.9 km
Semi-major
7,002.4 km
B*
1.1896e-4
RAAN
120.6418°
Arg perigee
257.9581°
Mean anomaly
101.8850°
Rev number
23,412

§ Raw data

GEESAT-1 021 52786U 22058B   26263.91523997  .00000721  00000+0  11896-3 0  99962 52786  50.0000 120.6418 0022360 257.9581 101.8850 14.81611098234121

JSON: /api/v1/satellites/52786 · /tle

For live sub-satellite position, see the globe view (requires WebGL).

§ Visibility from observer

Set your observer location to see the next 7 days of passes ≥ 10°. The values pass through the URL so the page stays shareable.

No JS? Fill the form by hand. The geolocation button needs JavaScript.